Location: Newark
(55.2831°N, 38.7366°E)
Time: 04:34:46
(UTC+00:00)

N. Korean satellite - Visible Passes

Search period start: 14 October 2019 00:00
Search period end: 24 October 2019 00:00
Orbit: 455 x 508 km, 97.2° (Epoch: 13 October)

Date Brightness Start Highest point End Pass type
(mag) Time Alt. Az. Time Alt. Az. Time Alt. Az.
14 Oct 9.6 02:37:21 10° NE 02:40:06 21° E 02:42:51 10° SE visible
15 Oct 10.3 02:13:04 10° ENE 02:14:33 12° E 02:16:03 10° ESE visible
16 Oct 10.1 15:37:21 10° WSW 15:39:13 14° W 15:41:06 10° NW visible
17 Oct 8.8 02:54:32 10° NNE 02:57:45 30° E 03:00:58 10° SSE visible
17 Oct 9.3 15:10:51 10° SSW 15:13:41 24° W 15:16:34 10° NW visible
18 Oct 9.9 02:29:44 10° NE 02:32:15 18° E 02:34:48 10° SE visible
19 Oct 10.5 02:05:58 10° ENE 02:06:41 10° E 02:07:24 10° E visible
20 Oct 7.9 03:11:50 10° NNE 03:15:20 46° E 03:18:51 10° S visible
20 Oct 9.9 15:29:03 10° SW 15:31:19 16° W 15:33:37 10° NW visible
21 Oct 9.1 02:46:48 10° NE 02:49:54 26° E 02:53:00 10° SSE visible
21 Oct 8.9 15:02:46 10° SSW 15:05:48 28° W 15:08:52 10° NNW visible
22 Oct 10.1 02:22:07 10° NE 02:24:23 16° E 02:26:38 10° SE visible
23 Oct 7.0 03:29:13 10° NNE 03:32:51 71° ESE 03:36:31 10° S visible
23 Oct 10.3 15:47:49 10° WSW 15:48:59 11° W 15:50:08 10° WNW visible
